Tracking 19796 objects as of 19-Jul-2019
HD Live streaming from Space Station
objects crossing your sky now

CSUNSAT1


CSUNSAT1 is no longer on orbit
CSUNSAT1 is classified as:


NORAD ID: 42715
Int'l Code: 1998-067LW
Perigee: N/A
Apogee: N/A
Inclination: N/A
Period: N/A
Semi major axis: N/A
RCS: N/A
Launch date: November 20, 1998
Source: United States (US)
Launch site: TYURATAM MISSILE AND SPACE COMPLEX (TTMTR)
Decay date: 2019-05-05

Uplink (MHz):
Downlink (MHz): 437.400
Beacon (MHz): 437.400
Mode: 9600bps GMSK CW
Call sign: CSUNSAT1
Status: Reentered

aabbcc
Your satellite tracking list
Your tracking list is empty




NASA's NSSDC Master Catalog

Two Line Element Set (TLE):
1 42715U 98067LW  19125.26904075  .15894941  12567-4  41505-3 0  9994
2 42715  51.6151 127.9321 0004619 278.8566  95.8002 16.45622418112486
Source of the keplerian elements: AFSPC